Retour au catalogue

NIMBUS 2 DEB

ActifLEO
NORAD 40646·DEBRIS·🇺🇸 United States

Lancé May 15, 1966 depuis Vandenberg Space Force Base

Loading…

Prochains Passages (prochaines 24 heures)

TLE

VieillissantSource: Space-Track

Époque: Sep 12, 2026, 03:46 UTC

1 40646U 66040BK  26255.15721759  .00001218  00000-0  19931-2 0  9990
2 40646 100.3694 152.2499 0048871 282.4683  77.0983 13.49472636555709

Suivez NIMBUS 2 DEB en temps réel avec AllMySat

Download on the App Store